Location: Unspecified
(0.0000°N, 0.0000°E)
Time: 23:12:59
(UTC+00:00)

Explorer 11/Cluster Stage 4 - All Passes

Search period start: 08 June 2026 00:00
Search period end: 18 June 2026 00:00
Orbit: 463 x 1173 km, 28.8° (Epoch: 7 June)

Date Brightness Start Highest point End Pass type
(mag) Time Alt. Az. Time Alt. Az. Time Alt. Az.
8 Jun - 06:05:44 10° SSW 06:10:03 27° SSE 06:13:43 10° E daylight
8 Jun - 07:53:16 10° WSW 07:57:29 46° NNW 08:01:08 10° NE daylight
8 Jun - 16:57:10 10° N 17:00:59 18° NNE 17:05:13 10° ENE daylight
8 Jun - 18:42:33 10° NW 18:48:47 71° NNE 18:56:11 10° ESE visible
8 Jun - 20:30:45 10° W 20:37:07 36° SSW 20:44:06 10° SE visible
8 Jun - 22:22:56 10° SW 22:26:14 13° SSW 22:29:34 10° S night (unlit)
9 Jun - 05:40:35 10° SW 05:45:19 29° SSE 05:49:17 10° E daylight
9 Jun - 07:28:20 10° WSW 07:32:49 46° NNW 07:36:36 10° NE daylight
9 Jun - 16:32:39 10° N 16:36:07 17° NNE 16:40:00 10° ENE daylight
9 Jun - 18:17:52 10° NW 18:23:48 72° NNE 18:30:59 10° ESE visible
9 Jun - 20:05:59 10° W 20:12:05 35° SSW 20:18:54 10° SE visible
9 Jun - 21:58:08 10° SW 22:01:14 13° SSW 22:04:22 10° S visible
10 Jun - 03:31:02 10° S 03:31:52 10° SSE 03:32:41 10° SSE visible
10 Jun - 05:15:24 10° SW 05:20:33 32° SSE 05:24:49 10° E visible
10 Jun - 07:03:20 10° WSW 07:08:06 46° NNW 07:12:04 10° NE daylight
10 Jun - 16:08:10 10° N 16:11:17 16° NNE 16:14:44 10° ENE daylight
10 Jun - 17:53:12 10° NW 17:58:50 72° NNE 18:05:46 10° ESE daylight
10 Jun - 19:41:16 10° W 19:47:04 33° SSW 19:53:40 10° SE visible
10 Jun - 21:33:26 10° SW 21:36:13 12° SSW 21:39:04 10° S visible
11 Jun - 03:04:52 10° S 03:06:59 11° SSE 03:09:00 10° SE visible
11 Jun - 04:50:11 10° SW 04:55:43 35° SSE 05:00:19 10° E visible
11 Jun - 06:38:17 10° WSW 06:43:22 47° NNW 06:47:32 10° NE daylight
11 Jun - 15:43:42 10° N 15:46:28 15° NNE 15:49:31 10° ENE daylight
11 Jun - 17:28:35 10° NW 17:33:55 73° NNE 17:40:33 10° ESE daylight
11 Jun - 19:16:36 10° W 19:22:04 32° SSW 19:28:24 10° SE visible
11 Jun - 21:08:53 10° SW 21:11:13 12° SSW 21:13:37 10° S visible
12 Jun - 02:39:13 10° S 02:42:05 13° SSE 02:44:47 10° SE visible
12 Jun - 04:24:57 10° SW 04:30:52 37° SSE 04:35:47 10° E visible
12 Jun - 06:13:10 10° WSW 06:18:35 48° NNW 06:23:00 10° NE daylight
12 Jun - 15:19:16 10° N 15:21:40 14° NNE 15:24:18 10° ENE daylight
12 Jun - 17:03:59 10° NW 17:09:02 73° NNE 17:15:20 10° ESE daylight
12 Jun - 18:51:58 10° W 18:57:06 30° SSW 19:03:07 10° SSE visible
12 Jun - 20:44:33 10° SSW 20:46:14 11° SSW 20:47:57 10° S visible
13 Jun - 02:13:41 10° S 02:17:08 14° SSE 02:20:22 10° SE visible
13 Jun - 03:59:40 10° SW 04:05:57 40° SSE 04:11:12 10° E visible
13 Jun - 05:48:01 10° WSW 05:53:46 48° NNW 05:58:26 10° NE daylight
13 Jun - 14:54:50 10° N 14:56:53 13° NNE 14:59:06 10° ENE daylight
13 Jun - 16:39:25 10° NW 16:44:11 74° NNE 16:50:09 10° ESE daylight
13 Jun - 18:27:23 10° W 18:32:10 28° SSW 18:37:48 10° SSE visible
14 Jun - 01:48:15 10° SSW 01:52:08 15° SSE 01:55:49 10° SE night (unlit)
14 Jun - 03:34:23 10° SW 03:41:01 42° SSE 03:46:34 10° E visible
14 Jun - 05:22:49 10° WSW 05:28:55 49° NNW 05:33:50 10° NE visible
14 Jun - 14:30:26 10° N 14:32:08 12° NNE 14:33:56 10° NE daylight
14 Jun - 16:14:50 10° NW 16:19:21 75° NNE 16:24:58 10° ESE daylight
14 Jun - 18:02:50 10° W 18:07:16 26° SSW 18:12:30 10° SSE daylight
15 Jun - 01:22:52 10° SSW 01:27:07 16° SSE 01:31:09 10° SE night (unlit)
15 Jun - 03:09:06 10° SW 03:16:02 44° SSE 03:21:54 10° E visible
15 Jun - 04:57:36 10° WSW 05:04:00 50° NNW 05:09:13 10° NE visible
15 Jun - 14:06:02 10° NNE 14:07:23 11° NNE 14:08:47 10° NE daylight
15 Jun - 15:50:16 10° NW 15:54:33 76° NNE 15:59:50 10° ESE daylight
15 Jun - 17:38:19 10° WSW 17:42:24 24° SSW 17:47:11 10° SSE daylight
16 Jun - 00:57:34 10° SSW 01:02:04 16° SSE 01:06:24 10° ESE night (unlit)
16 Jun - 02:43:50 10° SW 02:50:59 46° SSE 02:57:10 10° E visible
16 Jun - 04:32:21 10° WSW 04:39:02 50° NNW 04:44:33 10° NE visible
16 Jun - 06:25:14 10° NW 06:26:42 11° NNW 06:28:06 10° NNW daylight
16 Jun - 13:41:39 10° NNE 13:42:38 11° NNE 13:43:39 10° NE daylight
16 Jun - 15:25:43 10° NW 15:29:47 78° NNE 15:34:44 10° ESE daylight
16 Jun - 17:13:50 10° WSW 17:17:33 22° SSW 17:21:53 10° SSE daylight
17 Jun - 00:32:19 10° SSW 00:37:00 17° SSE 00:41:33 10° ESE night (unlit)
17 Jun - 02:18:34 10° SW 02:25:54 48° SSE 02:32:22 10° ENE visible
17 Jun - 04:07:06 10° WSW 04:14:01 51° NNW 04:19:50 10° NE visible
17 Jun - 05:59:40 10° NW 06:01:49 12° NNW 06:03:51 10° N daylight
17 Jun - 13:17:12 10° NNE 13:17:54 10° NNE 13:18:36 10° NE daylight
17 Jun - 15:01:08 10° NW 15:05:02 80° NNE 15:09:41 10° ESE daylight
17 Jun - 16:49:23 10° WSW 16:52:44 20° SSW 16:56:35 10° SSE daylight
